Wind_Speed
40 39 37 37 37 36 36 38 42 43 41 40 41 42 40 39 40 40 41 43 46 46 46 46 47 47 45 44 43 42 42 41 39 38 35 33 31 28 27 25 24 23 22 22 20 18 17 16 14 14 13 13 13 14 13 12 11 11 10 10 10 10 10
40 39 37 36 36 37 36 38 43 45 44 43 43 44 42 40 41 42 43 44 46 46 47 48 48 48 46 44 43 42 42 42 41 40 38 36 34 31 29 27 26 25 24 23 21 19 18 18 18 17 16 14 13 14 15 14 13 13 12 12 11 11 10
38 38 38 37 36 38 37 38 42 44 45 45 44 42 42 42 42 44 45 46 47 46 47 48 49 48 47 45 44 43 42 42 41 41 40 38 36 34 32 30 28 27 25 24 22 19 18 19 19 19 19 17 15 14 15 15 15 14 14 13 13 12 11
40 39 40 40 39 39 39 39 41 41 41 43 43 44 45 45 44 45 46 47 48 49 48 48 49 49 47 46 45 45 44 43 42 41 40 39 38 36 34 32 31 29 27 26 25 22 19 19 20 21 20 20 18 17 16 16 16 16 16 15 14 13 13
43 38 39 42 40 38 40 41 41 41 41 42 44 47 47 45 43 43 44 45 47 50 50 49 48 48 47 46 46 46 45 44 43 41 40 39 38 36 35 34 32 31 29 27 27 25 23 21 21 22 22 22 21 20 19 18 17 17 17 17 16 15 15
39 36 38 45 41 38 41 42 42 43 43 43 46 48 47 44 42 41 41 42 45 46 46 46 47 48 47 47 47 46 45 45 44 42 41 40 38 36 36 35 34 33 32 29 28 27 25 24 24 24 24 23 22 22 22 21 20 19 19 18 17 16 16
30 35 39 42 40 38 39 39 40 42 42 43 44 45 46 45 42 41 40 41 43 44 43 44 46 47 47 47 46 46 46 45 44 44 42 41 39 37 36 36 35 34 33 31 29 28 26 27 27 27 26 25 24 23 24 24 23 21 21 20 18 18 18
22 30 39 43 40 38 38 36 36 39 40 40 40 42 46 46 44 43 42 41 41 43 43 43 44 45 46 46 46 46 46 45 44 44 43 42 40 39 38 36 36 35 33 32 30 29 28 28 29 30 28 27 25 24 25 26 25 23 23 22 20 19 19
22 23 33 43 43 39 38 38 37 37 39 40 39 42 46 47 46 45 44 42 40 42 44 44 43 44 45 45 45 45 45 45 44 44 44 43 42 41 40 38 37 36 34 33 31 30 30 29 30 32 31 29 27 26 26 26 25 24 24 23 22 21 20
25 23 25 34 42 43 41 42 42 39 40 41 40 44 47 46 46 45 44 43 41 42 44 44 43 42 44 45 46 46 45 44 44 44 44 44 43 42 41 38 37 37 36 34 32 30 31 30 30 31 31 30 29 27 27 27 26 25 24 24 24 23 22
27 30 30 29 33 44 46 44 44 42 42 43 41 42 45 46 45 45 45 43 41 41 42 42 42 42 43 45 45 46 46 46 45 44 44 44 43 42 39 37 36 36 37 36 33 31 31 32 32 32 31 31 30 29 28 29 28 27 26 25 25 25 24
16 27 37 33 29 44 51 46 45 43 42 44 43 40 42 45 45 44 44 44 42 42 41 41 41 41 42 43 43 45 46 47 46 45 45 44 43 40 38 36 35 34 35 36 34 32 31 32 33 33 32 32 31 31 30 30 30 29 28 26 26 26 26
8 14 33 36 31 40 47 45 44 43 43 44 43 40 42 45 46 44 44 45 44 42 41 40 41 41 41 42 41 43 45 47 47 45 45 44 42 39 37 36 35 34 34 35 34 34 32 32 33 33 33 32 32 32 32 31 31 31 29 28 28 27 27
19 3 26 34 26 29 40 45 44 42 44 46 44 41 42 43 45 45 44 44 44 42 40 40 41 41 42 41 41 43 45 46 46 45 44 43 41 40 38 37 36 34 34 34 34 34 33 32 32 33 33 33 33 33 33 32 32 32 31 30 29 29 28
27 18 8 13 8 7 19 35 44 43 44 45 43 41 40 40 41 41 41 42 42 40 39 40 41 42 42 43 42 43 44 44 44 43 43 42 41 41 39 38 37 36 34 34 34 34 34 32 32 32 33 33 33 33 33 33 33 33 32 32 31 30 29
25 26 22 25 26 24 19 10 26 38 43 45 45 42 39 38 39 39 39 39 40 40 38 39 41 42 42 44 44 44 44 43 43 43 43 42 42 42 42 39 38 37 36 36 35 34 34 33 32 32 33 33 33 33 33 33 33 33 32 32 33 32 31
22 23 25 27 26 23 25 21 7 10 21 28 35 39 36 35 37 37 36 37 38 39 38 38 42 43 44 44 44 44 44 44 44 43 43 44 43 43 43 41 39 39 38 37 36 35 34 34 34 33 33 33 33 34 34 34 34 33 32 31 32 32 31
22 23 24 25 25 23 21 19 16 9 3 6 15 26 28 28 31 33 34 35 36 38 37 37 40 43 44 43 42 43 44 44 44 44 44 44 44 43 44 43 41 40 39 38 38 37 35 35 35 35 33 32 32 33 33 34 33 33 32 31 31 31 31
20 21 22 22 22 22 19 14 11 9 9 9 8 19 22 22 26 29 31 33 34 35 36 36 38 41 43 42 42 43 44 45 45 45 45 45 45 44 44 44 43 41 41 40 39 38 37 37 37 37 35 33 32 32 32 32 32 32 32 31 30 30 30
18 18 19 19 19 19 18 15 12 8 7 11 8 14 21 22 25 26 28 30 31 32 35 35 36 39 42 42 42 43 44 45 45 46 46 45 45 45 44 45 45 43 42 41 39 39 38 38 37 38 38 36 33 32 32 31 31 31 32 31 30 28 28
18 18 17 17 17 17 18 16 13 12 10 11 12 9 14 18 23 24 24 27 29 30 33 35 35 38 42 42 42 42 43 45 46 46 46 45 45 46 45 45 46 45 42 40 39 39 39 38 38 37 39 39 36 33 32 31 30 31 31 31 30 28 28
17 18 17 18 17 17 18 16 13 12 11 9 11 12 13 15 21 23 23 27 30 30 32 35 35 37 41 42 42 42 43 45 46 46 46 46 46 46 46 46 46 46 44 40 38 37 38 38 38 37 37 39 38 35 33 31 30 30 31 31 30 29 28
17 17 17 18 17 16 17 16 14 14 14 12 10 11 13 16 21 24 25 29 33 32 33 35 36 37 41 42 43 43 44 45 46 46 46 46 47 47 47 47 46 46 45 42 37 35 36 37 37 36 35 37 38 38 35 33 31 31 30 30 31 30 29
19 19 19 19 19 19 18 17 18 18 17 16 15 14 15 17 21 27 30 31 34 35 36 38 39 40 42 44 45 44 44 45 45 46 46 46 47 47 47 47 47 46 45 44 39 35 34 36 36 35 34 35 37 38 38 36 34 33 32 31 31 31 31
21 21 20 19 19 21 22 21 20 19 16 15 15 14 17 20 22 29 36 37 37 37 39 42 43 44 46 47 46 45 44 44 44 46 46 46 47 47 46 46 46 46 45 45 42 36 33 34 34 34 33 33 34 36 37 37 36 35 35 34 34 33 33
22 23 22 22 20 21 23 23 22 20 17 17 16 14 16 20 24 29 37 41 40 39 40 43 44 45 46 46 45 44 43 44 44 45 46 46 46 45 45 44 44 44 44 45 43 39 35 33 32 32 31 31 32 34 35 35 36 36 36 36 36 35 34
23 22 21 22 21 21 23 24 24 23 20 20 19 16 14 17 22 27 33 40 42 41 41 43 44 43 43 43 44 43 43 43 44 44 44 45 44 43 41 41 42 42 43 44 44 41 37 34 32 31 30 29 30 31 32 33 34 35 35 36 36 35 35
24 23 21 20 20 20 23 25 26 25 23 21 20 18 14 14 21 27 30 37 43 42 40 40 41 41 41 42 42 42 42 43 43 42 42 41 42 42 38 36 37 40 41 43 42 41 39 36 33 31 30 29 29 29 30 31 31 32 33 33 34 34 35
25 25 24 22 21 21 23 25 26 25 24 21 21 20 16 14 19 27 29 35 44 44 38 36 38 40 41 41 41 40 40 41 41 41 41 39 39 41 39 34 34 36 40 41 40 39 39 38 36 33 30 29 29 29 29 29 29 30 29 29 30 31 33
26 26 25 24 23 23 23 24 25 25 23 21 21 21 18 15 18 26 29 34 42 43 37 35 37 40 41 41 42 41 39 39 39 40 40 38 35 37 39 37 35 36 38 40 39 38 39 39 39 37 33 30 29 29 28 28 29 30 29 28 27 28 29
26 26 26 26 24 23 23 23 24 24 23 21 19 19 17 16 20 25 29 33 39 41 37 35 38 40 41 42 42 41 40 39 38 38 39 38 36 36 38 39 38 37 37 38 39 38 38 39 39 39 38 34 31 29 28 28 29 31 31 30 29 29 28
26 26 28 28 25 24 24 23 22 22 22 22 19 16 16 16 19 24 29 32 38 41 38 36 38 41 42 42 42 41 40 39 37 37 37 36 36 36 39 39 38 37 37 38 39 38 38 38 39 39 39 38 35 32 30 29 30 31 31 31 30 30 29
27 26 29 29 27 27 26 25 24 22 22 22 19 15 15 15 15 21 29 33 37 40 39 38 39 42 42 42 42 41 41 40 39 37 36 36 37 37 37 37 37 37 38 39 39 38 38 38 38 38 39 39 38 35 32 31 31 31 31 31 32 31 30
27 27 29 30 28 27 27 28 27 24 22 21 18 14 14 13 12 17 28 34 36 39 40 38 40 43 43 42 42 41 41 41 40 39 38 38 37 35 34 35 36 37 38 40 41 40 40 39 39 39 39 39 39 37 35 33 33 33 34 34 34 33 32
26 25 29 31 28 26 29 31 28 24 21 18 15 12 12 13 11 14 26 32 34 37 39 38 40 42 43 42 41 40 41 41 41 40 38 37 36 34 34 35 35 34 36 38 39 39 40 40 39 39 38 37 37 37 37 37 36 36 35 35 35 34 32
24 24 28 31 28 28 30 30 28 25 20 14 11 11 13 16 14 15 23 29 32 35 35 35 39 41 41 40 40 40 41 42 41 41 39 36 38 39 38 37 35 34 34 36 37 36 36 37 37 37 35 33 32 34 35 36 36 35 34 34 33 31 30
21 22 26 29 30 32 32 30 28 26 21 14 11 11 13 16 16 16 21 26 30 33 32 30 34 38 40 40 39 39 42 42 41 41 40 38 40 42 41 39 38 36 33 34 34 34 33 33 33 33 33 32 31 31 32 32 32 31 30 31 31 29 28
18 19 23 27 31 34 33 32 33 31 24 17 13 10 11 13 15 17 21 24 26 31 33 31 29 31 36 39 39 38 41 41 41 41 40 39 41 43 42 40 39 37 35 34 33 33 33 33 31 31 31 32 31 30 30 30 30 29 28 28 28 27 25
Wind_Direction
180 184 187 184 187 188 189 193 196 197 199 199 200 199 196 196 199 200 201 203 205 205 205 204 206 209 211 212 212 213 214 214 215 216 216 216 215 215 218 223 225 224 226 229 232 231 230 233 234 237 241 234 222 223 229 229 228 228 228 229 224 221 223
179 182 186 183 186 189 187 193 199 198 198 200 201 201 199 197 200 202 202 204 205 206 206 205 207 210 212 213 213 213 215 216 217 218 218 219 219 218 219 223 228 229 227 228 231 235 234 230 231 235 241 245 234 224 229 231 228 229 231 230 231 232 230
179 180 184 185 185 187 188 194 202 201 199 202 201 200 199 198 201 203 203 205 206 206 206 206 207 210 212 213 213 214 215 216 217 219 219 220 221 221 221 224 228 229 229 226 224 229 234 232 231 233 237 244 242 234 232 232 230 229 232 234 234 236 235
179 183 185 185 186 187 188 193 200 200 198 200 200 201 200 198 200 203 204 205 206 205 207 209 209 210 212 213 213 214 215 216 218 219 220 221 222 222 222 223 225 226 228 228 223 221 225 231 233 232 234 238 240 240 238 234 233 231 232 236 236 237 239
180 188 182 179 183 184 186 193 197 196 196 197 199 203 202 199 200 204 204 204 205 207 210 212 211 210 212 214 215 216 216 217 218 219 220 220 221 222 221 221 224 224 226 229 229 223 219 225 234 233 232 235 235 237 239 236 235 235 234 236 237 236 238
185 185 176 174 180 182 185 193 196 194 196 197 200 203 202 199 200 204 205 202 202 206 208 209 211 211 212 214 216 217 217 218 218 218 219 219 219 220 221 221 222 225 225 226 229 228 220 218 228 233 231 233 233 232 236 237 234 235 235 235 236 236 237
191 177 173 174 177 180 183 189 192 192 195 196 198 202 201 199 200 205 208 205 201 201 202 204 209 211 212 213 215 216 217 218 218 217 218 218 218 218 220 221 221 224 226 226 226 228 223 217 221 229 231 231 232 231 234 238 236 234 235 236 235 235 235
197 174 172 173 175 179 182 185 189 190 193 193 193 199 201 199 199 202 207 207 202 199 199 200 203 208 210 212 212 214 217 219 218 217 217 217 217 217 219 220 220 221 224 225 225 224 224 219 218 224 228 228 229 228 229 236 239 235 235 236 235 234 235
204 187 178 174 175 178 179 182 186 187 190 191 192 198 203 201 199 200 204 207 205 200 199 200 201 205 209 209 210 213 215 217 218 217 216 217 218 218 219 220 220 221 222 222 222 221 221 220 217 221 226 226 227 226 226 231 237 237 235 237 237 235 235
200 197 193 185 180 178 177 181 183 185 189 191 194 199 202 201 200 200 202 206 207 203 200 199 200 202 206 209 211 212 213 215 216 218 218 218 220 220 220 219 220 221 221 220 218 217 219 219 217 221 225 224 224 224 224 227 233 237 236 236 238 238 236
201 193 198 203 188 175 176 180 181 185 191 193 195 199 201 200 198 199 202 204 208 207 202 198 196 198 205 209 210 209 212 215 215 217 219 219 219 219 216 213 215 219 220 219 217 216 217 217 216 219 222 222 221 222 223 225 229 235 237 237 239 241 240
220 194 194 202 188 172 176 182 183 187 192 193 193 194 198 199 197 198 201 203 207 208 203 198 195 196 201 205 205 206 210 214 215 216 219 219 218 216 211 207 208 213 217 218 217 214 215 217 217 218 221 221 220 220 222 224 226 232 237 238 239 240 242
321 203 190 191 187 176 176 180 184 189 193 194 193 193 195 198 198 199 201 202 206 207 202 198 196 196 198 199 199 203 207 212 214 215 217 218 215 211 208 205 205 209 214 216 215 211 211 215 218 220 221 222 221 220 221 224 226 229 234 237 238 239 241
9 255 184 180 185 181 176 178 182 188 194 194 194 196 197 198 199 201 202 202 203 204 201 198 196 197 199 198 197 201 205 210 213 212 212 214 212 208 207 207 206 207 212 214 213 210 208 211 217 221 221 222 223 221 220 223 225 228 232 235 236 237 238
22 15 102 118 79 104 158 176 183 187 193 195 195 197 197 198 198 199 201 201 202 202 201 199 197 197 199 199 200 202 204 206 208 209 209 210 209 207 207 207 207 207 210 213 213 210 207 208 214 220 221 221 223 223 222 223 226 228 231 235 235 234 234
27 22 31 38 33 36 52 121 179 189 194 196 196 197 197 196 196 197 199 200 201 201 200 199 198 198 199 201 202 203 203 203 204 206 207 207 208 208 206 206 207 206 208 213 214 212 208 206 210 218 222 220 220 223 222 222 227 232 235 237 238 236 234
24 20 20 24 25 26 30 36 62 185 198 200 198 196 196 196 195 197 199 200 200 200 200 200 200 200 201 203 203 203 202 202 203 204 205 206 208 208 206 205 206 207 208 211 215 215 211 208 208 214 220 221 221 225 226 226 229 236 239 239 240 240 238
17 15 14 18 19 15 15 21 26 29 356 257 208 193 194 197 198 199 200 201 201 200 199 200 200 201 202 203 203 203 203 202 202 203 204 206 208 209 207 205 205 207 208 209 213 216 214 211 208 210 215 220 221 224 228 230 231 235 239 240 240 240 241
13 12 11 13 12 6 360 357 3 19 15 342 258 206 203 212 212 208 205 204 203 201 200 201 201 201 202 204 204 204 204 203 202 203 205 206 207 208 207 205 205 207 208 209 211 214 215 214 211 210 212 217 220 221 225 230 233 233 236 240 242 242 241
11 8 6 7 5 356 348 344 333 320 344 350 310 222 213 225 228 219 211 209 208 204 202 202 202 202 203 204 205 205 204 204 203 204 205 206 206 207 207 206 205 206 208 209 210 213 215 215 214 213 212 214 219 223 224 227 231 233 234 238 243 246 244
7 3 358 357 354 344 337 338 329 303 305 338 331 264 226 231 233 226 216 213 212 209 206 205 204 203 204 204 205 206 205 204 204 204 205 205 205 206 207 207 207 206 207 209 209 212 215 216 216 216 215 214 216 222 225 226 228 232 234 237 243 246 246
0 356 353 349 344 336 327 328 323 302 293 313 321 296 268 243 230 226 219 213 213 212 209 208 207 204 203 204 205 207 207 206 205 205 205 205 205 206 208 209 208 207 207 207 208 210 215 216 216 217 218 217 216 218 223 224 225 229 233 238 244 246 246
354 350 347 340 335 330 321 312 302 288 276 274 279 275 267 251 232 226 220 213 213 212 208 209 211 207 204 204 206 208 208 208 206 206 205 205 205 207 208 209 208 207 206 206 206 207 211 215 216 216 218 219 219 219 221 223 225 227 230 236 242 243 243
348 345 341 337 335 327 312 298 292 288 280 275 268 251 249 252 238 226 222 216 213 211 208 207 210 210 207 206 207 208 209 209 207 206 206 205 206 207 208 209 209 208 207 206 205 204 206 212 215 217 219 221 222 223 223 224 226 227 227 231 236 239 242
342 340 336 334 330 320 308 299 294 290 281 272 266 254 253 259 246 228 221 215 211 211 209 206 207 210 210 209 207 207 208 209 208 207 207 207 207 207 207 208 208 208 207 208 207 205 206 210 214 216 218 220 223 227 228 227 227 228 229 230 232 235 239
337 336 336 333 325 315 309 305 299 293 279 265 261 257 254 259 256 238 222 213 210 211 210 207 207 209 210 209 206 206 208 208 208 208 208 208 207 207 207 207 208 208 207 208 209 208 207 210 213 214 216 218 220 226 232 232 229 229 232 234 235 236 238
332 330 331 330 326 320 312 305 299 294 282 269 266 263 254 257 260 248 226 212 210 211 210 208 207 207 208 207 204 204 207 208 207 207 208 208 208 206 206 208 209 209 208 208 210 210 210 211 212 214 217 219 219 223 229 234 234 233 235 237 240 240 241
330 328 327 325 323 320 315 306 300 295 283 270 265 264 264 266 262 252 234 215 209 210 210 208 206 205 206 206 203 203 205 206 206 207 207 208 208 207 205 206 208 210 210 210 210 212 212 211 212 214 217 219 221 222 225 232 238 240 239 240 242 244 244
330 330 331 330 326 325 321 312 304 298 287 273 265 263 268 275 263 252 240 221 211 209 209 207 204 204 205 205 202 202 203 204 205 206 206 206 207 207 207 205 204 207 210 210 210 212 212 211 211 213 216 219 222 223 223 227 234 241 243 243 242 243 245
330 331 334 334 331 329 326 317 311 303 288 274 269 266 269 282 271 252 240 226 213 207 205 205 204 203 204 204 202 201 203 204 204 205 205 205 205 205 205 204 202 203 208 210 210 210 211 212 211 212 214 217 221 223 224 225 230 236 242 244 244 244 246
330 330 334 335 332 329 327 322 318 310 293 277 272 268 267 278 273 253 238 226 213 204 201 204 203 201 202 204 202 201 202 203 203 204 204 204 203 201 201 201 202 203 207 210 209 209 210 212 212 213 214 215 218 221 223 224 227 232 236 241 244 247 247
330 329 331 334 334 332 329 324 319 312 298 282 272 265 259 262 261 250 237 224 211 201 199 202 203 200 201 202 201 201 202 202 202 203 202 202 202 202 201 201 201 203 205 208 208 208 209 211 212 214 215 216 217 220 221 222 225 231 236 239 243 245 245
330 329 329 334 337 334 333 331 326 319 307 289 273 261 254 256 257 247 233 219 207 199 198 202 203 200 200 201 200 200 201 201 201 201 199 198 200 201 201 201 200 201 204 207 207 207 209 211 212 213 215 216 217 218 220 221 223 228 234 238 241 242 241
329 330 328 333 337 334 336 338 333 328 317 298 279 261 252 260 267 243 223 210 202 197 197 202 204 201 199 200 200 200 200 201 200 200 198 197 198 199 199 200 200 201 205 208 209 208 208 210 211 213 216 217 217 217 219 221 222 225 231 236 239 241 241
326 330 330 333 336 333 335 338 336 332 326 306 282 265 258 262 261 228 214 208 202 198 199 201 202 201 199 198 198 199 199 199 199 198 197 195 196 196 196 198 199 201 204 208 211 211 211 211 213 215 216 217 219 219 219 221 223 225 229 235 239 242 242
321 329 333 336 337 333 333 339 341 340 340 325 294 277 267 260 247 214 203 203 200 197 200 204 203 200 199 197 197 198 199 198 197 196 195 192 193 195 195 195 196 198 201 205 209 210 212 214 215 216 217 217 220 222 223 225 227 228 229 234 238 241 244
316 329 336 340 341 338 336 342 347 350 355 355 329 295 265 256 250 223 204 201 200 198 201 205 204 201 198 196 197 199 198 196 195 195 193 191 193 196 195 192 193 195 198 203 206 207 209 212 215 216 216 217 219 223 225 228 230 230 231 234 236 238 241
311 326 338 340 341 342 342 344 348 355 5 10 349 306 259 244 245 228 210 208 210 207 206 207 207 204 200 198 198 199 197 194 194 193 190 191 194 196 195 193 192 193 196 200 205 206 207 209 211 213 214 216 218 221 224 228 230 230 229 231 232 235 238
Height
1456 1461 1465 1469 1472 1475 1478 1481 1484 1487 1490 1493 1495 1499 1502 1505 1510 1514 1515 1515 1517 1519 1522 1525 1528 1530 1533 1536 1538 1541 1544 1547 1549 1552 1554 1557 1559 1561 1563 1565 1567 1569 1571 1572 1574 1576 1577 1579 1580 1581 1582 1583 1585 1586 1587 1588 1589 1590 1590 1591 1592 1593 1593
1451 1456 1460 1465 1467 1470 1474 1477 1480 1483 1486 1489 1492 1495 1498 1502 1506 1510 1512 1513 1514 1517 1519 1522 1524 1526 1529 1533 1536 1538 1541 1544 1547 1549 1552 1554 1557 1559 1561 1563 1565 1567 1569 1570 1572 1574 1576 1577 1578 1580 1581 1582 1583 1584 1585 1586 1588 1588 1589 1590 1591 1592 1592
1446 1450 1454 1459 1462 1465 1469 1472 1475 1479 1482 1484 1488 1492 1494 1497 1502 1506 1508 1509 1511 1514 1516 1519 1521 1523 1526 1530 1533 1535 1538 1541 1544 1546 1549 1551 1554 1556 1559 1561 1563 1565 1567 1569 1571 1572 1574 1575 1576 1578 1579 1580 1582 1583 1584 1585 1586 1587 1588 1589 1590 1590 1591
1440 1444 1448 1453 1456 1461 1464 1467 1471 1475 1478 1481 1484 1488 1490 1493 1498 1503 1505 1507 1508 1510 1513 1515 1518 1521 1524 1527 1529 1532 1535 1538 1540 1543 1546 1548 1551 1554 1556 1558 1560 1562 1564 1566 1569 1571 1572 1573 1574 1576 1577 1578 1580 1581 1582 1583 1584 1586 1587 1587 1588 1589 1590
1435 1438 1442 1447 1452 1457 1460 1463 1467 1470 1475 1478 1481 1485 1488 1492 1497 1502 1505 1505 1506 1507 1509 1512 1516 1518 1521 1523 1526 1528 1531 1534 1537 1540 1543 1546 1548 1551 1553 1556 1558 1560 1562 1564 1566 1568 1570 1571 1572 1573 1575 1576 1578 1579 1581 1582 1583 1584 1585 1586 1587 1588 1589
1428 1433 1436 1442 1448 1452 1455 1459 1463 1466 1471 1475 1479 1483 1487 1491 1496 1501 1504 1504 1504 1506 1508 1511 1513 1515 1517 1520 1522 1525 1528 1531 1534 1537 1540 1542 1546 1548 1550 1553 1555 1557 1559 1561 1563 1565 1568 1570 1570 1571 1572 1574 1575 1577 1578 1580 1581 1582 1583 1584 1585 1586 1587
1421 1427 1432 1438 1443 1448 1452 1456 1460 1464 1468 1471 1476 1481 1485 1488 1493 1499 1504 1504 1502 1503 1505 1508 1509 1511 1514 1516 1519 1522 1524 1527 1530 1533 1536 1539 1542 1545 1547 1550 1552 1554 1556 1559 1561 1563 1565 1567 1568 1569 1570 1572 1573 1575 1576 1577 1579 1581 1582 1583 1584 1585 1586
1418 1422 1429 1434 1439 1444 1448 1454 1458 1462 1465 1469 1473 1477 1481 1484 1487 1493 1500 1502 1501 1501 1502 1503 1505 1507 1510 1512 1515 1518 1520 1523 1526 1530 1533 1536 1539 1541 1544 1546 1549 1551 1554 1556 1558 1560 1562 1564 1566 1567 1568 1569 1571 1572 1574 1575 1576 1578 1579 1581 1582 1583 1584
1417 1421 1426 1430 1434 1439 1444 1449 1455 1459 1462 1466 1470 1472 1477 1480 1481 1486 1493 1499 1500 1499 1498 1499 1501 1503 1505 1508 1511 1514 1517 1520 1523 1526 1529 1532 1535 1538 1540 1543 1545 1548 1551 1553 1555 1557 1559 1561 1563 1564 1565 1567 1569 1570 1572 1573 1574 1576 1577 1578 1580 1581 1582
1415 1420 1424 1428 1431 1434 1439 1445 1450 1455 1459 1463 1466 1469 1473 1477 1479 1482 1488 1494 1497 1496 1495 1496 1497 1499 1501 1504 1507 1510 1514 1517 1520 1523 1526 1528 1531 1533 1536 1539 1542 1545 1547 1550 1552 1554 1556 1558 1560 1561 1563 1564 1566 1568 1569 1570 1572 1573 1575 1576 1578 1579 1580
1413 1417 1421 1425 1428 1430 1435 1441 1446 1451 1455 1458 1462 1465 1469 1473 1476 1479 1483 1487 1492 1494 1493 1493 1495 1497 1497 1499 1503 1506 1509 1512 1515 1519 1521 1524 1527 1530 1533 1536 1538 1541 1543 1546 1549 1551 1553 1555 1556 1558 1560 1561 1563 1565 1566 1568 1569 1571 1572 1574 1575 1576 1578
1411 1413 1417 1421 1425 1428 1432 1437 1441 1446 1450 1453 1457 1461 1464 1468 1472 1476 1478 1482 1486 1490 1491 1491 1492 1494 1494 1496 1500 1502 1505 1508 1511 1514 1517 1520 1524 1527 1530 1533 1535 1537 1539 1542 1545 1548 1550 1551 1553 1555 1556 1558 1560 1562 1564 1565 1567 1568 1570 1571 1573 1574 1575
1411 1411 1414 1418 1422 1426 1430 1434 1438 1442 1446 1449 1454 1458 1461 1464 1468 1471 1473 1476 1482 1486 1488 1488 1489 1491 1492 1493 1496 1498 1501 1503 1506 1510 1513 1516 1520 1524 1527 1530 1532 1534 1536 1538 1541 1544 1547 1548 1550 1551 1553 1555 1557 1559 1561 1562 1564 1565 1567 1568 1570 1571 1572
1413 1413 1414 1418 1423 1426 1429 1432 1435 1439 1443 1447 1451 1455 1458 1460 1464 1467 1469 1473 1478 1482 1484 1484 1485 1487 1488 1490 1492 1494 1496 1499 1502 1506 1509 1513 1517 1520 1524 1527 1530 1532 1534 1536 1538 1541 1543 1545 1547 1548 1551 1552 1554 1556 1558 1559 1561 1562 1564 1565 1567 1569 1570
1420 1419 1419 1422 1426 1427 1429 1432 1434 1436 1440 1444 1448 1452 1455 1458 1461 1464 1467 1470 1474 1477 1479 1480 1482 1484 1485 1486 1488 1489 1492 1495 1499 1502 1506 1510 1513 1517 1520 1523 1526 1529 1531 1533 1535 1537 1540 1542 1544 1545 1547 1550 1551 1553 1555 1556 1558 1559 1560 1562 1564 1566 1567
1428 1427 1426 1426 1427 1428 1430 1433 1435 1438 1439 1441 1445 1448 1451 1454 1457 1460 1464 1467 1470 1473 1475 1478 1479 1481 1482 1483 1484 1486 1489 1492 1495 1499 1502 1506 1509 1512 1516 1520 1523 1526 1528 1530 1532 1534 1537 1540 1541 1542 1544 1546 1548 1549 1551 1553 1554 1555 1557 1559 1561 1563 1565
1432 1432 1431 1430 1430 1430 1431 1433 1435 1438 1440 1442 1444 1446 1449 1452 1454 1457 1461 1463 1466 1469 1472 1474 1476 1477 1479 1480 1481 1484 1487 1489 1492 1495 1498 1502 1505 1508 1512 1516 1519 1522 1525 1527 1529 1531 1534 1536 1539 1540 1541 1543 1544 1546 1548 1549 1551 1552 1554 1556 1558 1561 1563
1436 1435 1434 1433 1433 1433 1434 1436 1437 1439 1441 1442 1444 1445 1447 1451 1453 1455 1458 1460 1463 1466 1469 1471 1472 1474 1476 1478 1480 1482 1484 1486 1489 1492 1495 1498 1501 1504 1508 1512 1516 1518 1521 1524 1526 1528 1530 1533 1535 1537 1538 1540 1541 1543 1544 1546 1547 1549 1551 1553 1555 1558 1560
1442 1440 1438 1437 1437 1437 1437 1438 1440 1443 1445 1447 1448 1449 1450 1452 1454 1455 1456 1459 1461 1463 1466 1468 1470 1472 1474 1476 1478 1480 1481 1484 1486 1488 1491 1494 1497 1500 1504 1508 1512 1514 1517 1520 1523 1525 1527 1529 1532 1534 1536 1537 1538 1540 1541 1543 1544 1546 1548 1550 1552 1555 1557
1447 1445 1444 1443 1442 1441 1440 1439 1441 1443 1446 1449 1451 1451 1452 1453 1455 1455 1456 1458 1460 1462 1464 1466 1468 1470 1471 1473 1475 1477 1479 1481 1483 1485 1487 1490 1494 1497 1500 1504 1507 1510 1514 1517 1520 1522 1523 1526 1528 1531 1533 1535 1536 1537 1539 1540 1542 1543 1545 1547 1549 1551 1554
1449 1448 1448 1447 1446 1445 1443 1442 1442 1442 1444 1446 1447 1447 1448 1450 1452 1454 1455 1457 1460 1462 1463 1465 1466 1467 1468 1471 1472 1474 1476 1478 1480 1483 1485 1488 1491 1494 1496 1499 1503 1506 1510 1513 1516 1519 1520 1523 1525 1527 1529 1532 1534 1535 1536 1538 1539 1541 1543 1544 1546 1548 1550
1450 1450 1450 1448 1448 1447 1445 1444 1444 1443 1443 1444 1444 1445 1446 1448 1450 1452 1453 1455 1457 1459 1461 1463 1464 1464 1465 1468 1470 1471 1473 1475 1478 1480 1482 1485 1488 1490 1493 1496 1499 1502 1506 1509 1513 1516 1518 1520 1522 1524 1526 1528 1531 1533 1534 1535 1537 1538 1540 1542 1543 1545 1547
1452 1451 1450 1449 1448 1447 1446 1445 1444 1444 1443 1443 1443 1444 1444 1446 1449 1450 1451 1452 1453 1455 1457 1460 1461 1461 1462 1464 1466 1468 1470 1472 1475 1477 1479 1482 1484 1486 1489 1492 1495 1499 1502 1506 1509 1512 1514 1517 1519 1521 1523 1525 1527 1529 1531 1533 1534 1535 1537 1539 1540 1542 1544
1452 1451 1450 1449 1447 1446 1444 1443 1442 1443 1443 1443 1444 1444 1444 1445 1446 1447 1449 1450 1450 1452 1453 1455 1457 1457 1457 1459 1462 1464 1466 1469 1471 1474 1476 1478 1480 1482 1485 1489 1492 1495 1499 1502 1505 1508 1511 1513 1515 1518 1520 1522 1523 1525 1527 1529 1530 1532 1534 1536 1537 1539 1540
1452 1451 1450 1448 1446 1444 1442 1440 1440 1440 1441 1441 1441 1442 1443 1444 1444 1445 1446 1447 1448 1449 1449 1449 1451 1451 1452 1454 1457 1460 1463 1465 1468 1471 1473 1475 1477 1480 1483 1486 1489 1493 1496 1499 1502 1505 1508 1509 1512 1514 1516 1518 1520 1521 1523 1525 1527 1528 1530 1532 1534 1535 1537
1452 1451 1449 1447 1445 1442 1440 1438 1437 1436 1437 1438 1437 1438 1439 1440 1440 1441 1441 1442 1443 1444 1444 1444 1445 1446 1448 1451 1454 1457 1459 1462 1465 1467 1469 1472 1474 1478 1481 1484 1487 1490 1493 1496 1499 1502 1505 1507 1509 1511 1513 1515 1517 1518 1519 1521 1523 1525 1526 1528 1530 1532 1533
1452 1450 1448 1446 1443 1441 1438 1435 1433 1433 1433 1433 1433 1433 1433 1433 1434 1435 1435 1436 1437 1438 1438 1439 1441 1444 1447 1449 1452 1454 1456 1458 1461 1464 1467 1470 1473 1476 1478 1481 1484 1487 1490 1493 1495 1499 1502 1504 1506 1508 1510 1512 1514 1515 1516 1517 1519 1521 1523 1525 1526 1528 1530
1451 1448 1446 1444 1441 1439 1436 1432 1430 1429 1429 1429 1429 1429 1429 1428 1428 1428 1429 1430 1431 1432 1433 1436 1439 1443 1445 1446 1449 1451 1453 1455 1458 1461 1465 1468 1470 1473 1475 1478 1481 1484 1486 1489 1492 1494 1498 1501 1503 1505 1507 1509 1510 1512 1513 1514 1515 1516 1519 1521 1522 1524 1526
1450 1447 1444 1441 1440 1438 1435 1431 1428 1426 1425 1425 1425 1425 1424 1423 1423 1423 1424 1424 1425 1427 1431 1434 1436 1440 1442 1443 1446 1449 1451 1453 1455 1458 1462 1464 1466 1469 1472 1474 1477 1480 1482 1485 1488 1491 1494 1497 1499 1502 1503 1505 1507 1508 1510 1511 1512 1513 1514 1517 1519 1520 1522
1450 1447 1443 1441 1439 1437 1434 1430 1427 1425 1423 1422 1421 1421 1420 1419 1419 1419 1420 1420 1421 1424 1429 1431 1433 1436 1438 1440 1443 1446 1448 1450 1453 1455 1458 1461 1463 1466 1468 1471 1473 1476 1478 1481 1484 1487 1490 1492 1495 1498 1500 1502 1504 1505 1507 1508 1509 1510 1511 1513 1515 1517 1518
1449 1446 1443 1441 1438 1436 1433 1430 1427 1424 1421 1419 1418 1417 1416 1415 1415 1416 1416 1417 1418 1421 1425 1427 1429 1431 1433 1436 1439 1442 1445 1447 1450 1452 1454 1457 1459 1461 1464 1466 1469 1472 1475 1477 1481 1484 1486 1488 1491 1493 1495 1498 1500 1502 1503 1505 1506 1507 1508 1510 1511 1513 1514
1447 1446 1443 1440 1437 1434 1431 1428 1426 1423 1419 1416 1415 1414 1413 1412 1411 1412 1413 1414 1415 1417 1421 1423 1425 1426 1429 1431 1435 1438 1441 1444 1446 1448 1450 1453 1456 1458 1460 1462 1465 1468 1470 1473 1477 1480 1482 1484 1486 1489 1491 1494 1496 1498 1500 1501 1502 1503 1504 1506 1508 1508 1510
1446 1445 1444 1441 1437 1434 1431 1427 1424 1421 1417 1413 1412 1411 1410 1409 1409 1409 1410 1410 1412 1414 1417 1419 1420 1422 1424 1427 1431 1435 1437 1439 1442 1444 1447 1449 1452 1454 1457 1459 1461 1464 1466 1469 1472 1475 1478 1480 1482 1484 1486 1489 1491 1494 1496 1497 1499 1499 1500 1502 1503 1504 1506
1446 1446 1444 1441 1437 1434 1430 1426 1422 1419 1416 1412 1410 1409 1408 1407 1407 1407 1408 1408 1409 1411 1413 1415 1416 1418 1420 1423 1426 1430 1433 1435 1437 1440 1442 1444 1447 1450 1453 1455 1457 1459 1461 1463 1466 1469 1472 1475 1477 1479 1481 1483 1486 1489 1491 1493 1494 1495 1495 1496 1498 1500 1502
1447 1445 1443 1440 1436 1434 1431 1427 1423 1418 1414 1411 1408 1407 1406 1405 1405 1405 1406 1406 1407 1409 1410 1412 1413 1414 1416 1419 1422 1426 1429 1431 1433 1435 1438 1440 1443 1446 1448 1450 1452 1455 1457 1460 1462 1465 1468 1470 1473 1475 1477 1480 1482 1484 1486 1488 1489 1491 1492 1493 1495 1497 1499
1447 1445 1443 1439 1436 1433 1431 1427 1422 1417 1413 1409 1407 1405 1404 1403 1403 1403 1403 1403 1405 1407 1409 1410 1411 1412 1414 1416 1419 1422 1424 1426 1428 1431 1433 1436 1438 1440 1442 1445 1448 1451 1454 1457 1459 1462 1465 1467 1470 1472 1475 1478 1480 1481 1482 1484 1486 1488 1490 1491 1492 1495 1497
1447 1444 1442 1439 1436 1432 1429 1424 1419 1415 1410 1407 1405 1404 1403 1401 1400 1400 1400 1400 1402 1403 1405 1408 1411 1412 1412 1414 1417 1419 1420 1422 1424 1426 1429 1431 1432 1434 1437 1440 1444 1447 1450 1453 1456 1459 1462 1465 1467 1470 1473 1475 1476 1478 1480 1482 1484 1486 1488 1489 1490 1493 1495
1446 1444 1442 1440 1437 1433 1428 1422 1417 1412 1408 1406 1405 1404 1402 1399 1398 1398 1398 1400 1401 1402 1403 1406 1410 1412 1413 1414 1416 1417 1418 1420 1421 1423 1425 1427 1427 1429 1433 1436 1439 1443 1447 1450 1453 1456 1459 1462 1465 1467 1470 1472 1474 1475 1477 1479 1481 1484 1485 1487 1488 1490 1492